Regional Weather Roundup
Issued by NWS

Home | Current Version | Previous Version | Text Only | Print | Product List | Glossary On
Versions: 1 2 3 4 5 6 7 8 9 10 11 12 13 14 15 16 17 18 19 20 21 22 23 24 25 26 27 28 29 30 31 32 33 34 35 36 37 38 39 40 41 42 43 44 45 46 47 48 49 50
000
ASUS43 KDTX 281810
RWRMI
MICHIGAN HOURLY REGIONAL WEATHER ROUNDUP
NATIONAL WEATHER SERVICE DETROIT/PONTIAC MI
200 PM EDT MON JUL 28 2014

NOTE: "FAIR" INDICATES FEW OR NO CLOUDS BELOW 12,000 FEET WITH NO
SIGNIFICANT WEATHER AND/OR OBSTRUCTION TO VISIBILITY.

MIZ047>049-052>055-059>063-066>070-074>076-081>083-281900-
SOUTHEAST LOWER MICHIGAN

CITY           SKY/WX    TMP DP  RH WIND       PRES   REMARKS
ADRIAN         CLOUDY    69  54  58 N12       29.94S
6HR MIN TEMP:  63; 6HR MAX TEMP:  71;

ALMA           PTSUNNY   67  47  49 N15G22    29.97S
6HR MIN TEMP:  58; 6HR MAX TEMP:  67;

ANN ARBOR      CLOUDY    67  51  56 NW10G21   29.93S
BAD AXE        CLOUDY    58  48  68 N16G22    29.96R
6HR MIN TEMP:  57; 6HR MAX TEMP:  59;

CARO           CLOUDY    62  55  75 N10G17    29.95S
DETROIT CITY   CLOUDY    70  51  51 N13       29.92R
6HR MIN TEMP:  64; 6HR MAX TEMP:  71; 6HR PCP: TRACE;

DETROIT        CLOUDY    69  52  54 N13G20    29.92S
6HR MIN TEMP:  62; 6HR MAX TEMP:  71;

FLINT          CLOUDY    65  52  62 N8        29.95R
6HR MIN TEMP:  61; 6HR MAX TEMP:  67;

GROSSE ILE     PTSUNNY   70  50  49 N13G21    29.90S
HILLSDALE      PTSUNNY   68  54  60 N9        29.96S
6HR MIN TEMP:  62; 6HR MAX TEMP:  68;

HOWELL         CLOUDY    64  54  68 NW10      29.95S

CITY           SKY/WX    TMP DP  RH WIND       PRES   REMARKS
JACKSON        CLOUDY    67  54  63 N9G17     29.95F
6HR MIN TEMP:  61; 6HR MAX TEMP:  68;

LAMBERTVILLE   CLOUDY    72  54  53 N9G16     29.93S
LANSING        CLOUDY    65  52  62 N10       29.97S
6HR MIN TEMP:  60; 6HR MAX TEMP:  66;

LAPEER         CLOUDY    61  52  73 NW3       29.95S
MASON          CLOUDY    65  54  68 N8        29.96S
MONROE         PTSUNNY   70  54  56 N8        29.90S
MT. CLEMENS    CLOUDY    65  53  65 N15G24    29.91S
6HR MIN TEMP:  63; 6HR MAX TEMP:  66;

PONTIAC        CLOUDY    66  51  58 N10       29.93R
6HR MIN TEMP:  59; 6HR MAX TEMP:  67;

PORT HOPE        N/A     61  50  67 CALM      29.95R
6HR MIN TEMP:  59; 6HR MAX TEMP:  62;

PORT HURON     CLOUDY    61  54  77 N8        29.93S
TRI CITIES     CLOUDY    68  51  54 NW14      29.96S
6HR MIN TEMP:  61; 6HR MAX TEMP:  68;

TROY           CLOUDY    67  51  57 N15G22    29.93S
SAGINAW HB     PTSUNNY   64  52  63 N9G17     29.95R
$$
MIZ043>046-050>051-056>058-064>065-071>073-077>080-281900-
SOUTHWEST LOWER MICHIGAN

CITY           SKY/WX    TMP DP  RH WIND       PRES   REMARKS
BATTLE CREEK   MOSUNNY   67  53  61 NW10      29.98F
6HR MIN TEMP:  60; 6HR MAX TEMP:  69;

BENTON HARBOR  CLOUDY    57  50  77 N10G21    30.05S
6HR MIN TEMP:  56; 6HR MAX TEMP:  58;

BIG RAPIDS     CLOUDY    62  48  61 N13G20    30.00R
6HR MIN TEMP:  56; 6HR MAX TEMP:  63;

COLDWATER      PTSUNNY   70  54  56 NW12      29.96F
6HR MIN TEMP:  62; 6HR MAX TEMP:  71;

FREMONT        CLOUDY    64  47  55 N12G18    30.00S
6HR MIN TEMP:  56; 6HR MAX TEMP:  66;

HOLLAND        SUNNY     62  52  69 W13       30.02S
6HR MIN TEMP:  59; 6HR MAX TEMP:  63;

GRAND RAPIDS   PTSUNNY   70  52  52 NW13      29.98F
6HR MIN TEMP:  58; 6HR MAX TEMP:  70;

IONIA          CLOUDY    64  51  62 N8G16     29.97S
KALAMAZOO      PTSUNNY   68  54  60 N12       30.00S
6HR MIN TEMP:  60; 6HR MAX TEMP:  68;

LUDINGTON      SUNNY     61  49  65 N17G23    30.04S
6HR MIN TEMP:  55; 6HR MAX TEMP:  61;

MARSHALL       CLOUDY    67  55  64 W12       29.96S
MOUNT PLEASANT CLOUDY    65  50  59 NW9       29.97S
6HR MIN TEMP:  57; 6HR MAX TEMP:  66;

MUSKEGON       PTSUNNY   64  50  60 W14       30.01S
6HR MIN TEMP:  57; 6HR MAX TEMP:  65;

SOUTH HAVEN    CLOUDY    57  52  84 N15G22    30.04S
$$
MIZ016>042-281900-
NORTHERN LOWER MICHIGAN

CITY           SKY/WX    TMP DP  RH WIND       PRES   REMARKS
ALPENA         CLOUDY    59  46  62 N13       29.98S
6HR MIN TEMP:  56; 6HR MAX TEMP:  60;

BEAVER ISLAND  SUNNY     64  46  51 NW10      30.02F
6HR MIN TEMP:  51; 6HR MAX TEMP:  64;

BELLAIRE       CLOUDY    62  44  52 N8        30.01F
6HR MIN TEMP:  55; 6HR MAX TEMP:  62;

CADILLAC       CLOUDY    58  46  64 N13G22    30.01F
CHARLEVOIX     SUNNY     62  47  58 N10       30.05F
6HR MIN TEMP:  55; 6HR MAX TEMP:  62;

FRANKFORT      SUNNY     62  46  54 N9G17     30.05S
GAYLORD        CLOUDY    57  42  57 NE12G22   30.01S
6HR MIN TEMP:  52; 6HR MAX TEMP:  58;

GRAYLING       CLOUDY    59  44  58 N10G21    30.02R
6HR MIN TEMP:  56; 6HR MAX TEMP:  59;

HARBOR SPRINGS CLOUDY    63  46  52 NW8       30.01F
HOUGHTON LAKE  PTSUNNY   58  45  62 N12G18    30.00S
6HR MIN TEMP:  56; 6HR MAX TEMP:  61;

MANISTEE       SUNNY     59  45  58 NW16G23   30.05S
OSCODA         CLOUDY    61  45  55 N10G20    29.96S
PELLSTON       CLOUDY    64  46  52 N12       30.01F
6HR MIN TEMP:  52; 6HR MAX TEMP:  64;

ROGERS CITY    CLOUDY    61  50  67 NW14G21   30.00S
TRAVERSE CITY  CLOUDY    61  44  53 N13G21    30.03S
6HR MIN TEMP:  57; 6HR MAX TEMP:  62;

$$
MIZ007>008-015-281900-
EASTERN UPPER MICHIGAN

CITY           SKY/WX    TMP DP  RH WIND       PRES   REMARKS
KINROSS        SUNNY     63  46  55 NW17G23   29.99F
6HR MIN TEMP:  50; 6HR MAX TEMP:  63;

MACKINAC ISLAN PTSUNNY   64  47  55 N9        30.00S
6HR MIN TEMP:  51; 6HR MAX TEMP:  64;

NEWBERRY       MOSUNNY   62  45  53 NW12G18   30.02F
6HR MIN TEMP:  45; 6HR MAX TEMP:  62; 6HR PCP:  0.05;

S. S. MARIE    CLOUDY    63  46  54 NW10      29.98F
6HR MIN TEMP:  53; 6HR MAX TEMP:  64;

MUNISING         N/A     64  44  48 E6        30.05F
6HR MIN TEMP:  52; 6HR MAX TEMP:  64;

$$
MIZ004>006-011>014-085-281900-
CENTRAL UPPER MICHIGAN

CITY           SKY/WX    TMP DP  RH WIND       PRES   REMARKS
MANISTIQUE       N/A    N/A N/A N/A MISG        N/A
ESCANABA       SUNNY     66  46  48 N8        30.05F
6HR MIN TEMP:  48; 6HR MAX TEMP:  66;

MENOMINEE      MOSUNNY   66  48  52 SE9       30.05F
6HR MIN TEMP:  50; 6HR MAX TEMP:  66;

SAWYER-GWINN   MOSUNNY   68  48  49 NW15      30.06S
$$
MIZ001>003-009>011-084-281900-
WESTERN UPPER MICHIGAN

CITY           SKY/WX    TMP DP  RH WIND       PRES   REMARKS
IRON MOUNTAIN  MOSUNNY   72  46  39 NW21      30.05F
6HR MIN TEMP:  49; 6HR MAX TEMP:  73;

COPPER HARBOR    N/A     64  54  69 N14       30.04F
6HR MIN TEMP:  54; 6HR MAX TEMP:  64;

$$

ABBREVIATIONS USED IN REMARKS
   TC - TEMPERATURE IN CELSIUS
  WCI - WIND CHILL INDEX
   HX - HEAT INDEX
  VSB - VISIBILITY




USA.gov is the U.S. government's official web portal to all federal, state and local government web resources and services.